RYR5ZM LGSA-LOWW

Flight info

Callsign RYR5ZM
Flight time 2h 16m
Altitude 32000
Route SOKRI UY151 DDM DCT XANIS DCT DIMIS DCT ADDER DCT ELBAK DCT INLOT DCT RETRA DCT OBUTI OBUTI2W
Aircraft A320/M-SDE3FGHIRWY/LB1

Departure

Time 2026-05-07 17:07
Airport Chania International Airport (LGSA)

Arrival

Time 2026-05-07 19:24
Airport Vienna International Airport (LOWW)
Time Latitude Longitude Altitude Speed Heading
2026-05-07 16:44 35.53792 24.14300 432 ft 0 kts 22°
2026-05-07 16:55 35.53790 24.14299 432 ft 2 kts 22°
2026-05-07 16:55 35.53776 24.14291 433 ft 2 kts 23°
2026-05-07 16:55 35.53765 24.14286 433 ft 2 kts 22°
2026-05-07 16:56 35.53751 24.14279 434 ft 2 kts 21°
2026-05-07 16:56 35.53738 24.14272 434 ft 2 kts 22°
2026-05-07 16:56 35.53721 24.14248 435 ft 1 kts 102°
2026-05-07 16:57 35.53723 24.14242 434 ft 1 kts 115°
2026-05-07 16:57 35.53724 24.14238 434 ft 0 kts 111°
2026-05-07 16:58 35.53722 24.14245 434 ft 0 kts 111°
2026-05-07 16:59 35.53716 24.14265 435 ft 5 kts 111°
2026-05-07 16:59 35.53702 24.14308 436 ft 6 kts 111°
2026-05-07 16:59 35.53686 24.14358 437 ft 6 kts 116°
2026-05-07 16:59 35.53657 24.14369 438 ft 7 kts 199°
2026-05-07 17:00 35.53590 24.14339 441 ft 9 kts 182°
2026-05-07 17:00 35.53547 24.14384 442 ft 7 kts 111°
2026-05-07 17:00 35.53523 24.14463 445 ft 14 kts 110°
2026-05-07 17:00 35.53486 24.14580 448 ft 13 kts 112°
2026-05-07 17:01 35.53452 24.14683 450 ft 12 kts 112°
2026-05-07 17:01 35.53422 24.14775 452 ft 12 kts 111°
2026-05-07 17:01 35.53382 24.14901 454 ft 19 kts 110°
2026-05-07 17:01 35.53331 24.15057 457 ft 19 kts 112°
2026-05-07 17:02 35.53280 24.15207 458 ft 18 kts 112°
2026-05-07 17:02 35.53232 24.15350 460 ft 17 kts 109°
2026-05-07 17:02 35.53193 24.15486 461 ft 16 kts 111°
2026-05-07 17:02 35.53147 24.15622 463 ft 18 kts 111°
2026-05-07 17:03 35.53102 24.15769 465 ft 17 kts 114°
2026-05-07 17:03 35.53057 24.15897 468 ft 17 kts 112°
2026-05-07 17:03 35.53012 24.16036 470 ft 17 kts 110°
2026-05-07 17:03 35.52972 24.16162 474 ft 14 kts 112°
2026-05-07 17:04 35.52933 24.16280 476 ft 14 kts 112°
2026-05-07 17:04 35.52892 24.16403 479 ft 17 kts 111°
2026-05-07 17:04 35.52845 24.16546 483 ft 17 kts 111°
2026-05-07 17:04 35.52803 24.16677 485 ft 15 kts 111°
2026-05-07 17:05 35.52764 24.16799 487 ft 14 kts 111°
2026-05-07 17:05 35.52730 24.16882 488 ft 5 kts 154°
2026-05-07 17:05 35.52707 24.16876 488 ft 2 kts 197°
2026-05-07 17:05 35.52666 24.16861 489 ft 8 kts 197°
2026-05-07 17:06 35.52616 24.16839 490 ft 7 kts 202°
2026-05-07 17:06 35.52581 24.16814 490 ft 1 kts 249°
2026-05-07 17:06 35.52583 24.16790 490 ft 3 kts 290°
2026-05-07 17:06 35.52607 24.16715 490 ft 29 kts 292°
2026-05-07 17:07 35.52785 24.16173 481 ft 106 kts 291°
2026-05-07 17:07 35.53144 24.15070 464 ft 169 kts 291°
2026-05-07 17:07 35.53623 24.13632 944 ft 184 kts 292°
2026-05-07 17:07 35.54093 24.12203 1715 ft 183 kts 291°
2026-05-07 17:08 35.54541 24.10750 2421 ft 187 kts 290°
2026-05-07 17:08 35.55028 24.09209 2956 ft 201 kts 291°
2026-05-07 17:08 35.55715 24.07657 3442 ft 217 kts 313°
2026-05-07 17:08 35.56957 24.06514 3950 ft 233 kts 340°
2026-05-07 17:09 35.58552 24.06202 4640 ft 239 kts
2026-05-07 17:09 35.60213 24.06296 5450 ft 241 kts
2026-05-07 17:09 35.61850 24.06137 6316 ft 240 kts 342°
2026-05-07 17:09 35.63340 24.05190 6954 ft 249 kts 326°
2026-05-07 17:10 35.64809 24.03880 7398 ft 267 kts 322°
2026-05-07 17:10 35.66281 24.02477 8006 ft 276 kts 322°
2026-05-07 17:10 35.67833 24.01004 8771 ft 279 kts 322°
2026-05-07 17:10 35.69369 23.99564 9542 ft 281 kts 322°
2026-05-07 17:11 35.70926 23.98124 10290 ft 283 kts 322°
2026-05-07 17:11 35.72547 23.96639 10676 ft 299 kts 322°
2026-05-07 17:11 35.74280 23.95058 10986 ft 317 kts 322°
2026-05-07 17:11 35.76100 23.93400 11273 ft 333 kts 322°
2026-05-07 17:12 35.77977 23.91704 11732 ft 341 kts 322°
2026-05-07 17:12 35.79900 23.89930 12296 ft 346 kts 321°
2026-05-07 17:12 35.81821 23.88151 12914 ft 348 kts 321°
2026-05-07 17:12 35.83769 23.86363 13501 ft 351 kts 321°
2026-05-07 17:13 35.85731 23.84565 14073 ft 354 kts 321°
2026-05-07 17:13 35.87714 23.82759 14606 ft 357 kts 322°
2026-05-07 17:13 35.89714 23.80936 15122 ft 360 kts 321°
2026-05-07 17:13 35.91728 23.79104 15635 ft 362 kts 321°
2026-05-07 17:14 35.93753 23.77221 16141 ft 365 kts 321°
2026-05-07 17:14 35.95822 23.75290 16645 ft 368 kts 320°
2026-05-07 17:14 35.97893 23.73357 17158 ft 369 kts 321°
2026-05-07 17:14 35.99972 23.71415 17587 ft 373 kts 321°
2026-05-07 17:15 36.02076 23.69450 18045 ft 376 kts 321°
2026-05-07 17:15 36.04199 23.67465 18551 ft 377 kts 320°
2026-05-07 17:15 36.06284 23.65514 19105 ft 375 kts 320°
2026-05-07 17:15 36.08382 23.63549 19567 ft 377 kts 321°
2026-05-07 17:16 36.10509 23.61557 19996 ft 378 kts 321°
2026-05-07 17:16 36.12620 23.59578 20462 ft 379 kts 320°
2026-05-07 17:16 36.14741 23.57590 20938 ft 379 kts 321°
2026-05-07 17:16 36.16870 23.55592 21326 ft 381 kts 321°
2026-05-07 17:17 36.19006 23.53586 21726 ft 382 kts 321°
2026-05-07 17:17 36.21152 23.51569 22136 ft 383 kts 321°
2026-05-07 17:17 36.23298 23.49554 22545 ft 384 kts 321°
2026-05-07 17:17 36.25581 23.47798 22909 ft 389 kts 332°
2026-05-07 17:18 36.28188 23.46725 23325 ft 394 kts 345°
2026-05-07 17:18 36.30905 23.46141 23632 ft 398 kts 346°
2026-05-07 17:18 36.33698 23.45573 24002 ft 399 kts 346°
2026-05-07 17:18 36.36417 23.45016 24452 ft 397 kts 346°
2026-05-07 17:19 36.39152 23.44453 24779 ft 398 kts 346°
2026-05-07 17:19 36.41922 23.43880 25079 ft 400 kts 346°
2026-05-07 17:19 36.44665 23.43313 25462 ft 399 kts 346°
2026-05-07 17:19 36.47425 23.42742 25769 ft 401 kts 345°
2026-05-07 17:20 36.50212 23.42165 26124 ft 400 kts 345°
2026-05-07 17:20 36.52965 23.41595 26412 ft 401 kts 345°
2026-05-07 17:20 36.55719 23.41024 26728 ft 402 kts 345°
2026-05-07 17:20 36.58486 23.40450 27011 ft 403 kts 345°
2026-05-07 17:21 36.61271 23.39872 27309 ft 403 kts 345°
2026-05-07 17:21 36.64069 23.39278 27619 ft 402 kts 345°
2026-05-07 17:21 36.66848 23.38650 27892 ft 403 kts 344°
2026-05-07 17:21 36.69628 23.38062 28170 ft 404 kts 345°
2026-05-07 17:22 36.72439 23.37493 28344 ft 407 kts 344°
2026-05-07 17:22 36.75231 23.36930 28577 ft 408 kts 345°
2026-05-07 17:22 36.78045 23.36359 28865 ft 407 kts 344°
2026-05-07 17:22 36.80862 23.35781 29086 ft 408 kts 344°
2026-05-07 17:23 36.83680 23.35200 29339 ft 408 kts 344°
2026-05-07 17:23 36.86494 23.34616 29637 ft 407 kts 343°
2026-05-07 17:23 36.89302 23.34033 29926 ft 406 kts 343°
2026-05-07 17:23 36.92099 23.33450 30269 ft 404 kts 343°
2026-05-07 17:24 36.94909 23.32864 30602 ft 403 kts 342°
2026-05-07 17:24 36.97658 23.32289 30908 ft 401 kts 342°
2026-05-07 17:24 37.00438 23.31708 31199 ft 400 kts 343°
2026-05-07 17:24 37.03128 23.31147 31669 ft 395 kts 342°
2026-05-07 17:25 37.05860 23.30574 31930 ft 395 kts 342°
2026-05-07 17:25 37.08570 23.30007 32030 ft 395 kts 342°
2026-05-07 17:25 37.14021 23.28857 32047 ft 394 kts 342°
2026-05-07 17:26 37.19443 23.27715 32054 ft 395 kts 342°
2026-05-07 17:26 37.24804 23.26584 32049 ft 395 kts 342°
2026-05-07 17:27 37.30333 23.25416 32059 ft 396 kts 342°
2026-05-07 17:27 37.35808 23.24258 32077 ft 398 kts 341°
2026-05-07 17:28 37.41335 23.23087 32101 ft 400 kts 342°
2026-05-07 17:28 37.46767 23.21514 32119 ft 391 kts 332°
2026-05-07 17:29 37.51492 23.18297 32128 ft 381 kts 319°
2026-05-07 17:29 37.55778 23.14322 32126 ft 380 kts 319°
2026-05-07 17:30 37.60067 23.10342 32101 ft 379 kts 319°
2026-05-07 17:30 37.64317 23.06394 32076 ft 379 kts 319°
2026-05-07 17:31 37.68550 23.02455 32075 ft 379 kts 319°
2026-05-07 17:31 37.72814 22.98484 32093 ft 379 kts 319°
2026-05-07 17:32 37.77095 22.94489 32081 ft 380 kts 319°
2026-05-07 17:32 37.81370 22.90495 32075 ft 380 kts 319°
2026-05-07 17:33 37.85669 22.86472 32077 ft 380 kts 318°
2026-05-07 17:33 37.89834 22.82292 32070 ft 380 kts 319°
2026-05-07 17:34 37.94163 22.78300 32051 ft 382 kts 320°
2026-05-07 17:34 37.98475 22.74361 32049 ft 381 kts 319°
2026-05-07 17:35 38.02800 22.70343 32056 ft 381 kts 319°
2026-05-07 17:35 38.07084 22.66325 32061 ft 381 kts 319°
2026-05-07 17:36 38.11387 22.62271 32061 ft 382 kts 319°
2026-05-07 17:36 38.15680 22.58214 32055 ft 382 kts 318°
2026-05-07 17:37 38.20003 22.54121 32056 ft 383 kts 318°
2026-05-07 17:37 38.24300 22.50045 32055 ft 383 kts 319°
2026-05-07 17:38 38.28574 22.45984 32076 ft 382 kts 319°
2026-05-07 17:38 38.32774 22.41987 32075 ft 383 kts 319°
2026-05-07 17:39 38.37076 22.37889 32082 ft 383 kts 318°
2026-05-07 17:39 38.41362 22.33798 32115 ft 383 kts 317°
2026-05-07 17:40 38.45672 22.29679 32131 ft 383 kts 318°
2026-05-07 17:40 38.49934 22.25600 32155 ft 383 kts 318°
2026-05-07 17:41 38.54237 22.21477 32143 ft 383 kts 317°
2026-05-07 17:41 38.58474 22.17318 32121 ft 381 kts 316°
2026-05-07 17:42 38.62634 22.13016 32100 ft 382 kts 316°
2026-05-07 17:42 38.66783 22.08729 32113 ft 381 kts 316°
2026-05-07 17:43 38.70950 22.04417 32107 ft 381 kts 315°
2026-05-07 17:43 38.75118 22.00096 32098 ft 382 kts 315°
2026-05-07 17:44 38.79285 21.95771 32109 ft 381 kts 316°
2026-05-07 17:44 38.83417 21.91474 32106 ft 381 kts 315°
2026-05-07 17:45 38.87557 21.87163 32102 ft 381 kts 316°
2026-05-07 17:45 38.91704 21.82836 32093 ft 382 kts 315°
2026-05-07 17:46 38.95857 21.78496 32105 ft 383 kts 315°
2026-05-07 17:46 39.00020 21.74140 32119 ft 383 kts 315°
2026-05-07 17:47 39.04137 21.69825 32125 ft 383 kts 316°
2026-05-07 17:47 39.08311 21.65443 32105 ft 383 kts 315°
2026-05-07 17:48 39.12484 21.61055 32093 ft 384 kts 316°
2026-05-07 17:48 39.16640 21.56679 32114 ft 385 kts 315°
2026-05-07 17:49 39.20808 21.52281 32121 ft 385 kts 315°
2026-05-07 17:49 39.24988 21.47865 32122 ft 385 kts 316°
2026-05-07 17:50 39.29157 21.43454 32128 ft 386 kts 315°
2026-05-07 17:50 39.33313 21.39050 32124 ft 386 kts 315°
2026-05-07 17:51 39.37462 21.34645 32139 ft 386 kts 315°
2026-05-07 17:51 39.41608 21.30237 32149 ft 387 kts 315°
2026-05-07 17:52 39.45763 21.25812 32152 ft 387 kts 314°
2026-05-07 17:52 39.49920 21.21379 32156 ft 387 kts 315°
2026-05-07 17:53 39.54074 21.16942 32146 ft 387 kts 314°
2026-05-07 17:53 39.58224 21.12502 32128 ft 386 kts 314°
2026-05-07 17:54 39.62337 21.08093 32114 ft 386 kts 315°
2026-05-07 17:54 39.66482 21.03644 32098 ft 385 kts 314°
2026-05-07 17:55 39.70599 20.99217 32091 ft 385 kts 315°
2026-05-07 17:55 39.74698 20.94804 32103 ft 384 kts 315°
2026-05-07 17:56 39.78822 20.90354 32080 ft 384 kts 315°
2026-05-07 17:56 39.82919 20.85929 32084 ft 385 kts 314°
2026-05-07 17:57 39.86348 20.82219 32095 ft 385 kts 314°
2026-05-07 17:57 39.91155 20.77010 32126 ft 385 kts 314°
2026-05-07 17:58 39.95267 20.72546 32135 ft 386 kts 314°
2026-05-07 17:58 39.99382 20.68071 32142 ft 386 kts 314°
2026-05-07 17:59 40.03515 20.63569 32116 ft 388 kts 314°
2026-05-07 17:59 40.07806 20.59264 32118 ft 396 kts 322°
2026-05-07 18:00 40.12764 20.55970 32130 ft 401 kts 326°
2026-05-07 18:00 40.17755 20.52779 32135 ft 402 kts 327°
2026-05-07 18:01 40.22780 20.49562 32126 ft 402 kts 326°
2026-05-07 18:01 40.27821 20.46326 32126 ft 402 kts 327°
2026-05-07 18:02 40.35387 20.41462 32121 ft 403 kts 327°
2026-05-07 18:03 40.40405 20.38230 32107 ft 403 kts 327°
2026-05-07 18:03 40.45435 20.34983 32115 ft 405 kts 326°
2026-05-07 18:04 40.50497 20.31711 32118 ft 406 kts 327°
2026-05-07 18:04 40.55586 20.28403 32121 ft 406 kts 326°
2026-05-07 18:05 40.60612 20.25109 32122 ft 406 kts 326°
2026-05-07 18:05 40.65662 20.21796 32086 ft 407 kts 326°
2026-05-07 18:06 40.70736 20.18463 32089 ft 408 kts 327°
2026-05-07 18:06 40.75840 20.15105 32063 ft 410 kts 326°
2026-05-07 18:07 40.80923 20.11755 32073 ft 410 kts 326°
2026-05-07 18:07 40.86031 20.08406 32061 ft 413 kts 328°
2026-05-07 18:08 40.91321 20.05415 32071 ft 416 kts 330°
2026-05-07 18:08 40.96636 20.02469 32074 ft 415 kts 330°
2026-05-07 18:09 41.01996 19.99494 32064 ft 416 kts 330°
2026-05-07 18:09 41.07294 19.96549 32088 ft 415 kts 330°
2026-05-07 18:10 41.12628 19.93578 32064 ft 416 kts 330°
2026-05-07 18:10 41.17972 19.90596 32065 ft 418 kts 330°
2026-05-07 18:11 41.23325 19.87605 32077 ft 418 kts 330°
2026-05-07 18:11 41.28722 19.84582 32097 ft 419 kts 331°
2026-05-07 18:12 41.34083 19.81574 32094 ft 419 kts 331°
2026-05-07 18:12 41.39421 19.78575 32111 ft 419 kts 330°
2026-05-07 18:13 41.44858 19.75513 32090 ft 419 kts 331°
2026-05-07 18:13 41.50240 19.72479 32073 ft 420 kts 330°
2026-05-07 18:14 41.55595 19.69453 32077 ft 420 kts 330°
2026-05-07 18:14 41.61018 19.66384 32089 ft 420 kts 330°
2026-05-07 18:15 41.66399 19.63332 32070 ft 422 kts 331°
2026-05-07 18:15 41.71805 19.60262 32093 ft 422 kts 331°
2026-05-07 18:16 41.77253 19.57161 32082 ft 424 kts 331°
2026-05-07 18:16 41.82669 19.54073 32096 ft 425 kts 331°
2026-05-07 18:17 41.88112 19.50964 32091 ft 425 kts 332°
2026-05-07 18:17 41.93564 19.47844 32109 ft 425 kts 331°
2026-05-07 18:18 41.99004 19.44829 32123 ft 428 kts 335°
2026-05-07 18:18 42.04648 19.42156 32106 ft 429 kts 335°
2026-05-07 18:19 42.10286 19.39481 32106 ft 429 kts 335°
2026-05-07 18:19 42.15918 19.36803 32116 ft 430 kts 335°
2026-05-07 18:20 42.21439 19.34158 32122 ft 429 kts 333°
2026-05-07 18:20 42.26903 19.30737 32126 ft 426 kts 328°
2026-05-07 18:21 42.32192 19.27124 32135 ft 426 kts 327°
2026-05-07 18:21 42.37511 19.23486 32136 ft 426 kts 328°
2026-05-07 18:22 42.42788 19.19869 32151 ft 427 kts 328°
2026-05-07 18:22 42.48095 19.16224 32156 ft 427 kts 328°
2026-05-07 18:23 42.53457 19.12535 32177 ft 427 kts 327°
2026-05-07 18:23 42.58784 19.08864 32170 ft 428 kts 327°
2026-05-07 18:24 42.64075 19.05211 32186 ft 429 kts 327°
2026-05-07 18:24 42.69365 19.01549 32180 ft 429 kts 327°
2026-05-07 18:25 42.74700 18.97848 32180 ft 429 kts 327°
2026-05-07 18:25 42.80004 18.94162 32201 ft 429 kts 327°
2026-05-07 18:26 42.85344 18.90444 32196 ft 430 kts 327°
2026-05-07 18:26 42.90656 18.86739 32184 ft 431 kts 327°
2026-05-07 18:27 42.95980 18.83019 32199 ft 431 kts 327°
2026-05-07 18:27 43.01334 18.79270 32196 ft 432 kts 327°
2026-05-07 18:28 43.06657 18.75535 32199 ft 433 kts 327°
2026-05-07 18:28 43.12014 18.71769 32205 ft 434 kts 327°
2026-05-07 18:29 43.17377 18.67991 32199 ft 434 kts 327°
2026-05-07 18:29 43.22773 18.64183 32199 ft 436 kts 327°
2026-05-07 18:30 43.28177 18.60362 32195 ft 437 kts 327°
2026-05-07 18:30 43.33580 18.56533 32193 ft 438 kts 327°
2026-05-07 18:31 43.38978 18.52700 32200 ft 438 kts 327°
2026-05-07 18:31 43.44406 18.48837 32187 ft 440 kts 327°
2026-05-07 18:32 43.49892 18.44925 32187 ft 441 kts 327°
2026-05-07 18:32 43.55359 18.41020 32190 ft 441 kts 328°
2026-05-07 18:33 43.60782 18.37137 32183 ft 442 kts 327°
2026-05-07 18:33 43.66238 18.33224 32203 ft 443 kts 327°
2026-05-07 18:34 43.71716 18.29286 32202 ft 444 kts 327°
2026-05-07 18:34 43.77223 18.25319 32206 ft 445 kts 327°
2026-05-07 18:35 43.82709 18.21358 32205 ft 445 kts 327°
2026-05-07 18:35 43.88215 18.17376 32196 ft 446 kts 327°
2026-05-07 18:36 43.93750 18.13364 32191 ft 446 kts 327°
2026-05-07 18:36 43.99248 18.09370 32181 ft 447 kts 327°
2026-05-07 18:37 44.04771 18.05349 32181 ft 447 kts 327°
2026-05-07 18:37 44.10184 18.01400 32174 ft 448 kts 327°
2026-05-07 18:38 44.15696 17.97370 32174 ft 448 kts 327°
2026-05-07 18:38 44.21215 17.93328 32172 ft 448 kts 327°
2026-05-07 18:39 44.26613 17.89365 32172 ft 448 kts 327°
2026-05-07 18:39 44.32161 17.85283 32162 ft 449 kts 327°
2026-05-07 18:40 44.37671 17.81221 32160 ft 449 kts 327°
2026-05-07 18:40 44.43161 17.77165 32169 ft 449 kts 327°
2026-05-07 18:41 44.48782 17.73003 32166 ft 449 kts 327°
2026-05-07 18:41 44.54316 17.68896 32162 ft 450 kts 327°
2026-05-07 18:42 44.59844 17.64786 32156 ft 450 kts 327°
2026-05-07 18:42 44.65383 17.60658 32164 ft 450 kts 327°
2026-05-07 18:43 44.70930 17.56515 32162 ft 450 kts 327°
2026-05-07 18:43 44.76473 17.52366 32166 ft 451 kts 326°
2026-05-07 18:44 44.82005 17.48215 32156 ft 451 kts 327°
2026-05-07 18:44 44.87552 17.44045 32148 ft 452 kts 326°
2026-05-07 18:45 44.93091 17.39871 32151 ft 452 kts 326°
2026-05-07 18:45 44.98649 17.35674 32149 ft 452 kts 326°
2026-05-07 18:46 45.04203 17.31471 32158 ft 453 kts 326°
2026-05-07 18:46 45.09744 17.27268 32163 ft 453 kts 326°
2026-05-07 18:47 45.15302 17.23043 32147 ft 453 kts 326°
2026-05-07 18:47 45.20854 17.18812 32147 ft 452 kts 325°
2026-05-07 18:48 45.26369 17.14601 32138 ft 452 kts 325°
2026-05-07 18:48 45.31912 17.10359 32135 ft 452 kts 325°
2026-05-07 18:49 45.36849 17.06573 32133 ft 452 kts 325°
2026-05-07 18:49 45.42436 17.02278 32128 ft 452 kts 325°
2026-05-07 18:50 45.48018 16.97979 32112 ft 453 kts 325°
2026-05-07 18:50 45.53574 16.93689 32111 ft 453 kts 325°
2026-05-07 18:51 45.59100 16.89413 32123 ft 454 kts 325°
2026-05-07 18:51 45.64664 16.85097 32116 ft 454 kts 325°
2026-05-07 18:52 45.70116 16.80860 32122 ft 455 kts 325°
2026-05-07 18:52 45.75747 16.76473 32127 ft 455 kts 325°
2026-05-07 18:53 45.81287 16.72147 32126 ft 456 kts 324°
2026-05-07 18:53 45.86883 16.67767 32117 ft 456 kts 324°
2026-05-07 18:54 45.92484 16.63374 32110 ft 457 kts 324°
2026-05-07 18:54 45.98061 16.58989 32117 ft 457 kts 324°
2026-05-07 18:55 46.03670 16.54567 32102 ft 458 kts 324°
2026-05-07 18:55 46.09300 16.50120 32108 ft 459 kts 324°
2026-05-07 18:56 46.14877 16.45704 32099 ft 459 kts 324°
2026-05-07 18:56 46.20469 16.41266 32100 ft 459 kts 324°
2026-05-07 18:57 46.26022 16.36848 32088 ft 460 kts 324°
2026-05-07 18:57 46.31676 16.32338 32086 ft 460 kts 324°
2026-05-07 18:58 46.37447 16.28055 32099 ft 470 kts 333°
2026-05-07 18:58 46.43913 16.25959 32073 ft 480 kts 345°
2026-05-07 18:58 46.47160 16.25205 31873 ft 472 kts 345°
2026-05-07 18:59 46.50380 16.24450 31643 ft 465 kts 345°
2026-05-07 18:59 46.53535 16.23704 31401 ft 459 kts 344°
2026-05-07 18:59 46.56690 16.22955 31165 ft 455 kts 345°
2026-05-07 18:59 46.59833 16.22208 30919 ft 453 kts 345°
2026-05-07 19:00 46.62924 16.21471 30674 ft 452 kts 345°
2026-05-07 19:00 46.66031 16.20731 30423 ft 451 kts 345°
2026-05-07 19:00 46.69141 16.19991 30071 ft 446 kts 345°
2026-05-07 19:00 46.72198 16.19262 29605 ft 443 kts 345°
2026-05-07 19:01 46.75261 16.18529 29064 ft 442 kts 345°
2026-05-07 19:01 46.78270 16.17810 28556 ft 439 kts 345°
2026-05-07 19:01 46.81301 16.17084 28033 ft 437 kts 345°
2026-05-07 19:01 46.84259 16.16375 27505 ft 435 kts 345°
2026-05-07 19:02 46.87229 16.15663 26991 ft 433 kts 345°
2026-05-07 19:02 46.90208 16.14947 26472 ft 431 kts 345°
2026-05-07 19:02 46.93035 16.14267 25963 ft 430 kts 345°
2026-05-07 19:02 46.96016 16.13550 25431 ft 427 kts 345°
2026-05-07 19:03 46.98957 16.12841 24908 ft 425 kts 345°
2026-05-07 19:03 47.01867 16.12139 24375 ft 423 kts 345°
2026-05-07 19:03 47.04778 16.11435 23860 ft 420 kts 346°
2026-05-07 19:03 47.07681 16.10733 23340 ft 417 kts 346°
2026-05-07 19:04 47.10539 16.10041 22803 ft 415 kts 346°
2026-05-07 19:04 47.13416 16.09344 22292 ft 412 kts 346°
2026-05-07 19:04 47.16221 16.08663 21773 ft 409 kts 346°
2026-05-07 19:04 47.19062 16.07973 21261 ft 406 kts 346°
2026-05-07 19:05 47.21843 16.07297 20745 ft 403 kts 347°
2026-05-07 19:05 47.24589 16.06628 20247 ft 400 kts 347°
2026-05-07 19:05 47.27311 16.05965 19740 ft 398 kts 347°
2026-05-07 19:05 47.30043 16.05298 19236 ft 395 kts 347°
2026-05-07 19:06 47.32721 16.04644 18736 ft 392 kts 347°
2026-05-07 19:06 47.37991 16.04191 17921 ft 387 kts 12°
2026-05-07 19:06 47.40506 16.05597 17691 ft 379 kts 25°
2026-05-07 19:07 47.42873 16.07332 17491 ft 370 kts 26°
2026-05-07 19:07 47.45176 16.09042 17275 ft 363 kts 25°
2026-05-07 19:07 47.47452 16.10721 17040 ft 362 kts 25°
2026-05-07 19:07 47.49681 16.12361 16779 ft 361 kts 25°
2026-05-07 19:08 47.51920 16.14007 16504 ft 359 kts 25°
2026-05-07 19:08 47.54156 16.15650 16202 ft 357 kts 25°
2026-05-07 19:08 47.56344 16.17259 15915 ft 355 kts 25°
2026-05-07 19:08 47.58547 16.18880 15623 ft 353 kts 25°
2026-05-07 19:09 47.60493 16.20312 15373 ft 350 kts 25°
2026-05-07 19:09 47.62500 16.21792 15095 ft 348 kts 25°
2026-05-07 19:09 47.64697 16.23411 14800 ft 346 kts 25°
2026-05-07 19:09 47.66836 16.24991 14501 ft 344 kts 25°
2026-05-07 19:10 47.68985 16.26578 14237 ft 342 kts 25°
2026-05-07 19:10 47.71130 16.28165 13949 ft 339 kts 25°
2026-05-07 19:10 47.73238 16.29726 13660 ft 335 kts 25°
2026-05-07 19:10 47.75356 16.31294 13362 ft 333 kts 25°
2026-05-07 19:11 47.77398 16.32809 13072 ft 332 kts 25°
2026-05-07 19:11 47.79473 16.34349 12783 ft 330 kts 25°
2026-05-07 19:11 47.81342 16.35738 12513 ft 328 kts 25°
2026-05-07 19:11 47.82866 16.36871 12267 ft 327 kts 25°
2026-05-07 19:12 47.84911 16.38392 11927 ft 325 kts 25°
2026-05-07 19:12 47.86911 16.39882 11589 ft 323 kts 25°
2026-05-07 19:12 47.88794 16.41285 11278 ft 321 kts 25°
2026-05-07 19:12 47.90789 16.42773 10944 ft 318 kts 25°
2026-05-07 19:13 47.92764 16.44248 10600 ft 316 kts 25°
2026-05-07 19:13 47.94584 16.45608 10306 ft 314 kts 25°
2026-05-07 19:13 47.96498 16.47040 10019 ft 309 kts 25°
2026-05-07 19:13 47.98340 16.48418 9873 ft 299 kts 25°
2026-05-07 19:14 48.00042 16.49694 9712 ft 291 kts 25°
2026-05-07 19:14 48.01905 16.51090 9464 ft 288 kts 25°
2026-05-07 19:14 48.03696 16.52433 9137 ft 287 kts 25°
2026-05-07 19:14 48.05456 16.53754 8774 ft 287 kts 25°
2026-05-07 19:15 48.07237 16.55092 8407 ft 286 kts 25°
2026-05-07 19:15 48.08948 16.56379 8056 ft 285 kts 25°
2026-05-07 19:15 48.10480 16.57532 7754 ft 284 kts 25°
2026-05-07 19:15 48.12469 16.59030 7365 ft 283 kts 25°
2026-05-07 19:16 48.14208 16.60341 7029 ft 281 kts 25°
2026-05-07 19:16 48.15968 16.61668 6683 ft 280 kts 25°
2026-05-07 19:16 48.17699 16.62976 6410 ft 277 kts 25°
2026-05-07 19:16 48.19416 16.64271 6072 ft 276 kts 25°
2026-05-07 19:17 48.21130 16.65543 5749 ft 275 kts 21°
2026-05-07 19:17 48.22715 16.66040 5454 ft 271 kts 356°
2026-05-07 19:17 48.24560 16.65478 5157 ft 267 kts 343°
2026-05-07 19:17 48.26353 16.64718 4845 ft 266 kts 343°
2026-05-07 19:18 48.28080 16.63992 4633 ft 256 kts 343°
2026-05-07 19:18 48.29572 16.63101 4448 ft 245 kts 324°
2026-05-07 19:18 48.30679 16.61124 4243 ft 234 kts 292°
2026-05-07 19:18 48.30908 16.58762 3896 ft 234 kts 262°
2026-05-07 19:19 48.30509 16.56378 3575 ft 233 kts 254°
2026-05-07 19:19 48.30008 16.54078 3276 ft 231 kts 252°
2026-05-07 19:19 48.29157 16.52082 3037 ft 230 kts 219°
2026-05-07 19:19 48.27977 16.51333 2980 ft 225 kts 184°
2026-05-07 19:20 48.26608 16.51664 2980 ft 215 kts 164°
2026-05-07 19:20 48.25252 16.52256 2994 ft 200 kts 166°
2026-05-07 19:20 48.23985 16.52765 2965 ft 184 kts 166°
2026-05-07 19:20 48.22777 16.53259 2794 ft 174 kts 166°
2026-05-07 19:21 48.21655 16.53725 2561 ft 162 kts 166°
2026-05-07 19:21 48.20584 16.54180 2322 ft 159 kts 166°
2026-05-07 19:21 48.19641 16.54577 2139 ft 157 kts 166°
2026-05-07 19:21 48.18618 16.55008 1962 ft 157 kts 167°
2026-05-07 19:22 48.17613 16.55425 1776 ft 155 kts 166°
2026-05-07 19:22 48.16543 16.55882 1571 ft 155 kts 167°
2026-05-07 19:22 48.15516 16.56319 1367 ft 154 kts 166°
2026-05-07 19:22 48.14588 16.56713 1188 ft 153 kts 167°
2026-05-07 19:23 48.13577 16.57138 977 ft 153 kts 167°
2026-05-07 19:23 48.12544 16.57580 759 ft 152 kts 166°
2026-05-07 19:23 48.11540 16.58005 614 ft 146 kts 167°
2026-05-07 19:23 48.10675 16.58365 609 ft 102 kts 165°
2026-05-07 19:24 48.10222 16.58556 609 ft 41 kts 165°
2026-05-07 19:24 48.09962 16.58611 609 ft 31 kts 187°
2026-05-07 19:24 48.09825 16.58583 609 ft 16 kts 188°
2026-05-07 19:24 48.09709 16.58560 609 ft 15 kts 188°
2026-05-07 19:25 48.09643 16.58515 609 ft 8 kts 237°
2026-05-07 19:25 48.09631 16.58461 609 ft 6 kts 271°
2026-05-07 19:25 48.09673 16.58375 609 ft 12 kts 335°
2026-05-07 19:25 48.09759 16.58337 609 ft 13 kts 344°
2026-05-07 19:26 48.09852 16.58298 609 ft 15 kts 345°
2026-05-07 19:26 48.09957 16.58252 609 ft 16 kts 345°
2026-05-07 19:26 48.10070 16.58206 609 ft 17 kts 345°
2026-05-07 19:26 48.10192 16.58155 609 ft 18 kts 345°
2026-05-07 19:27 48.10315 16.58102 609 ft 18 kts 344°
2026-05-07 19:27 48.10440 16.58049 609 ft 19 kts 344°
2026-05-07 19:27 48.10570 16.57993 609 ft 19 kts 343°
2026-05-07 19:27 48.10706 16.57936 609 ft 20 kts 344°
2026-05-07 19:28 48.10847 16.57877 609 ft 21 kts 344°
2026-05-07 19:28 48.10992 16.57815 609 ft 21 kts 344°
2026-05-07 19:28 48.11122 16.57757 609 ft 17 kts 335°
2026-05-07 19:28 48.11193 16.57608 609 ft 18 kts 297°
2026-05-07 19:29 48.11251 16.57427 609 ft 21 kts 296°
2026-05-07 19:29 48.11317 16.57221 609 ft 22 kts 297°
2026-05-07 19:29 48.11389 16.57002 609 ft 23 kts 296°
2026-05-07 19:29 48.11464 16.56773 609 ft 24 kts 296°
2026-05-07 19:30 48.11541 16.56535 609 ft 25 kts 296°
2026-05-07 19:30 48.11618 16.56298 609 ft 25 kts 295°
2026-05-07 19:30 48.11697 16.56055 608 ft 25 kts 295°
2026-05-07 19:30 48.11777 16.55813 608 ft 26 kts 296°
2026-05-07 19:31 48.11853 16.55578 609 ft 20 kts 296°
2026-05-07 19:31 48.11899 16.55401 609 ft 16 kts 295°
2026-05-07 19:31 48.11949 16.55249 609 ft 16 kts 296°
2026-05-07 19:31 48.11985 16.55169 608 ft 2 kts 356°
2026-05-07 19:32 48.12011 16.55181 609 ft 3 kts 26°
2026-05-07 19:32 48.12059 16.55217 609 ft 9 kts 27°
2026-05-07 19:32 48.12103 16.55242 609 ft 5 kts 351°
2026-05-07 19:32 48.12125 16.55200 609 ft 6 kts 296°
2026-05-07 19:33 48.12135 16.55171 608 ft 0 kts 296°